Weather History for Sundsvall-Harnosand Airpor, t

Change the Weather History Date:

Monday, February 18, 2013

  Actual Average Record
Temperature  
Mean Temperature 16 °F -  
Max Temperature 27 °F - - ()
Min Temperature 6 °F - - ()
Degree Days  
Heating Degree Days 48    
Moisture  
Dew Point 19 °F    
Average Humidity 86    
Maximum Humidity 100    
Minimum Humidity 70    
Precipitation  
Precipitation 0.00 in - - ()
Sea Level Pressure  
Sea Level Pressure 30.08 in    
Wind  
Wind Speed 4 mph ()    
Max Wind Speed 13 mph    
Max Gust Speed -    
Visibility 7.1 miles    
Events Fog , Snow    
T = Trace of Precipitation, MM = Missing Value Source: Averaged Metar Reports

Daily Weather History Graph

Daily Weather History Graph

Search for Another Location

Airport:

Trip Planner

Search our weather history database for the weather conditions in past years. The results will help you decide how hot, cold, wet, or windy it might be!

Date:

Astronomy

Feb. 18, 2013 Rise Set
Actual Time 7:28 AM CET 4:40 PM CET
Civil Twilight 6:41 AM CET 5:28 PM CET
Nautical Twilight 5:49 AM CET 6:20 PM CET
Astronomical Twilight 4:56 AM CET 7:13 PM CET
Moon 9:14 AM CET (2/18) 2:49 AM CET (2/18)
Length of Visible Light 10h 46m
Length of Day
9h 11m
First Quarter, 56% of the Moon is Illuminated
Feb 18
First Quarter
Feb 25
Full
Mar 4
Last Quarter
Mar 11
New
Mar 19
First Quarter

Hourly Weather History & Observations

Time (CET) Temp. Windchill Dew Point Humidity Pressure Visibility Wind Dir Wind Speed Gust Speed Precip Events Conditions
12:00 AM 12 °F - 11 °F 92% 30.02 in 4 mi West 2.2 mph - -   Mist
12:20 AM 14.0 °F - 12.2 °F 93% 30.01 in - Calm Calm - N/A   Clear
12:50 AM 10.4 °F - 8.6 °F 92% 30.01 in 6.2 mi Calm Calm - N/A Fog Shallow Fog
1:00 AM 11 °F - 10 °F 95% 30.01 in 0 mi North 2.2 mph - - Fog Patches of Fog
1:20 AM 10.4 °F - 8.6 °F 92% 30.01 in 6.2 mi Calm Calm - N/A Fog Patches of Fog
1:50 AM 8.6 °F - 6.8 °F 92% 30.01 in - Calm Calm - N/A   Clear
2:00 AM 10 °F - 9 °F 91% 30.01 in 9 mi NW 2.2 mph - - Fog Fog
2:20 AM 10.4 °F 4.0 °F 8.6 °F 92% 30.01 in - NW 3.5 mph - N/A   Clear
2:50 AM 14.0 °F 8.2 °F 14.0 °F 100% 30.01 in 6.2 mi WNW 3.5 mph - N/A   Overcast
3:00 AM 16 °F - 15 °F 96% 30.02 in 25 mi WNW 4.5 mph - -   Overcast
3:20 AM 17.6 °F 12.3 °F 15.8 °F 93% 30.01 in 6.2 mi WNW 3.5 mph - N/A   Overcast
3:50 AM 17.6 °F - 15.8 °F 93% 30.01 in 6.2 mi WNW 2.3 mph - N/A   Overcast
4:20 AM 17.6 °F - 17.6 °F 100% 30.01 in 6.2 mi NW 2.3 mph - N/A   Overcast
4:50 AM 21.2 °F 11.7 °F 19.4 °F 93% 30.01 in 6.2 mi NW 8.1 mph - N/A   Overcast
5:00 AM 21 °F - 20 °F 93% 30.02 in 19 mi NW 6.7 mph - - Snow Light Snow
5:20 AM 21.2 °F 10.9 °F 21.2 °F 100% 30.01 in 6.2 mi NNW 9.2 mph - N/A   Overcast
5:50 AM 23.0 °F 13.9 °F 21.2 °F 93% 30.01 in 6.2 mi NNW 8.1 mph - N/A   Overcast
6:00 AM 23 °F - 22 °F 92% 30.03 in 28 mi NNW 8.9 mph - - Snow Snow
6:20 AM 23.0 °F 13.1 °F 21.2 °F 93% 30.01 in 6.2 mi NW 9.2 mph - N/A   Overcast
6:50 AM 23.0 °F 13.9 °F 21.2 °F 93% 30.04 in 6.2 mi NW 8.1 mph - N/A   Overcast
7:00 AM 23 °F - 22 °F 92% 30.04 in 28 mi NW 8.9 mph - -   Scattered Clouds
7:20 AM 23.0 °F 12.4 °F 21.2 °F 93% 30.04 in 6.2 mi NW 10.4 mph - N/A   Overcast
7:50 AM 24.8 °F 15.3 °F 21.2 °F 86% 30.04 in 6.2 mi NW 9.2 mph - N/A   Overcast
8:00 AM 24 °F - 22 °F 89% 30.05 in 28 mi NNW 6.7 mph - -   Overcast
8:20 AM 24.8 °F 17.9 °F 23.0 °F 93% 30.04 in 6.2 mi NW 5.8 mph - N/A   Overcast
8:50 AM 24.8 °F 20.5 °F 23.0 °F 93% 30.04 in 6.2 mi West 3.5 mph - N/A   Overcast
9:00 AM 25 °F - 23 °F 90% 30.06 in 19 mi NW 4.5 mph - -   Overcast
9:20 AM 26.6 °F 22.6 °F 23.0 °F 86% 30.06 in 6.2 mi WNW 3.5 mph - N/A   Overcast
9:50 AM 26.6 °F 22.6 °F 24.8 °F 93% 30.06 in 6.2 mi NNW 3.5 mph - N/A   Overcast
10:20 AM 26.6 °F 20.0 °F 24.8 °F 93% 30.06 in 6.2 mi North 5.8 mph - N/A   Overcast
10:50 AM 26.6 °F 22.6 °F 24.8 °F 93% 30.06 in 6.2 mi NE 3.5 mph - N/A   Overcast
11:00 AM 27 °F - 24 °F 81% 30.09 in 16 mi ENE 4.5 mph - -   Scattered Clouds
11:20 AM 26.6 °F 19.1 °F 23.0 °F 86% 30.06 in 6.2 mi NNE 6.9 mph - N/A   Overcast
11:50 AM 26.6 °F 19.1 °F 23.0 °F 86% 30.06 in 6.2 mi NE 6.9 mph - N/A   Overcast
12:00 PM 27 °F - 23 °F 78% 30.09 in 25 mi NE 6.7 mph - -   Overcast
12:20 PM 26.6 °F 19.1 °F 23.0 °F 86% 30.09 in 6.2 mi NNE 6.9 mph - N/A   Overcast
12:50 PM 26.6 °F 20.0 °F 23.0 °F 86% 30.09 in 6.2 mi North 5.8 mph - N/A   Overcast
1:00 PM 27 °F - 22 °F 74% 30.10 in 28 mi NNE 6.7 mph - -   Overcast
1:20 PM 26.6 °F 21.2 °F 23.0 °F 86% 30.09 in 6.2 mi North 4.6 mph - N/A   Overcast
1:50 PM 26.6 °F 19.1 °F 23.0 °F 86% 30.09 in 6.2 mi North 6.9 mph - N/A   Overcast
2:00 PM 27 °F - 22 °F 74% 30.11 in 22 mi North 6.7 mph - - Snow Light Snow Showers
2:20 PM 28.4 °F 22.2 °F 21.2 °F 74% 30.09 in 6.2 mi NNE 5.8 mph - N/A   Overcast
2:51 PM 26.6 °F 19.1 °F 21.2 °F 80% 30.09 in 6.2 mi North 6.9 mph - N/A   Overcast
3:20 PM 26.6 °F 19.1 °F 21.2 °F 80% 30.09 in 6.2 mi North 6.9 mph - N/A   Mostly Cloudy
3:50 PM 26.6 °F 18.2 °F 21.2 °F 80% 30.09 in 6.2 mi North 8.1 mph - N/A   Overcast
4:20 PM 26.6 °F 18.2 °F 21.2 °F 80% 30.09 in 6.2 mi North 8.1 mph - N/A   Overcast
4:50 PM 26.6 °F 18.2 °F 21.2 °F 80% 30.12 in 6.2 mi North 8.1 mph - N/A   Overcast
5:00 PM 27 °F - 21 °F 70% 30.14 in 31 mi North 6.7 mph - -   Scattered Clouds
5:20 PM 26.6 °F 20.0 °F 21.2 °F 80% 30.12 in 6.2 mi North 5.8 mph - N/A   Mostly Cloudy
5:50 PM 26.6 °F 20.0 °F 21.2 °F 80% 30.12 in 6.2 mi NNE 5.8 mph - N/A   Overcast
6:00 PM 26 °F - 21 °F 73% 30.15 in 31 mi NNE 4.5 mph - -   Overcast
6:20 PM 26.6 °F 20.0 °F 21.2 °F 80% 30.15 in 6.2 mi North 5.8 mph - N/A   Mostly Cloudy
6:50 PM 24.8 °F 16.9 °F 21.2 °F 86% 30.15 in 6.2 mi North 6.9 mph - N/A   Mostly Cloudy
7:00 PM 25 °F - 20 °F 76% 30.16 in 31 mi North 6.7 mph - -   Scattered Clouds
7:20 PM 26.6 °F 19.1 °F 19.4 °F 74% 30.15 in 6.2 mi North 6.9 mph - N/A   Mostly Cloudy
7:50 PM 24.8 °F 17.9 °F 19.4 °F 80% 30.15 in 6.2 mi NNE 5.8 mph - N/A   Overcast
8:00 PM 25 °F - 20 °F 74% 30.18 in 14 mi NNE 6.7 mph - -   Overcast
8:20 PM 24.8 °F 20.5 °F 21.2 °F 86% 30.15 in 6.2 mi NNE 3.5 mph - N/A Snow Light Snow
8:50 PM 24.8 °F 15.3 °F 19.4 °F 80% 30.18 in 6.2 mi NNE 9.2 mph - N/A Snow Light Snow Grains
9:00 PM 24 °F - 19 °F 74% 30.19 in 17 mi NNE 6.7 mph - - Snow Light Snow
9:20 PM 24.8 °F 13.4 °F 17.6 °F 74% 30.18 in 6.2 mi North 12.7 mph - N/A Snow Light Snow Grains
9:50 PM 23.0 °F 14.7 °F 17.6 °F 80% 30.18 in 6.2 mi NNW 6.9 mph - N/A Snow Snow Grains
10:20 PM 23.0 °F 14.7 °F 17.6 °F 80% 30.18 in 6.2 mi NW 6.9 mph - N/A   Scattered Clouds
10:50 PM 19.4 °F 11.5 °F 14.0 °F 80% 30.18 in 6.2 mi NW 5.8 mph - N/A   Scattered Clouds
11:00 PM 16 °F - 13 °F 83% 30.21 in 31 mi NNW 6.7 mph - -   Scattered Clouds
11:20 PM 15.8 °F 7.2 °F 14.0 °F 93% 30.18 in 6.2 mi NW 5.8 mph - N/A   Scattered Clouds
11:50 PM 15.8 °F 10.2 °F 15.8 °F 100% 30.21 in 6.2 mi WNW 3.5 mph - N/A   Scattered Clouds